Orbital Elements at Epoch 2459000.5 (2020-May-31.0) TDB
Reference: JPL 26 (heliocentric ecliptic J2000)
Element | Value | Uncertainty (1-sigma) | Units |
e | .02845170526322526 | 3.4788e-08 | |
a | 2.308438264958974 | 7.8869e-09 | au |
q | 2.24275925982601 | 7.9918e-08 | au |
i | 3.223842127204782 | 3.7676e-06 | deg |
node | 159.2199068590337 | 6.2688e-05 | deg |
peri | 32.71806442202131 | 9.0991e-05 | deg |
M | 198.821568732961 | 6.5737e-05 | deg |
tp | 2459574.061837669201 (2021-Dec-25.56183767) | 0.00023424 | TDB |
period | 1281.078739492224 3.51 | 6.5653e-06 1.797e-08 | d yr |
n | .2810131718700536 | 1.4401e-09 | deg/d |
Q | 2.374117270091937 | 8.1113e-09 | au |
|
| | Orbit Determination Parameters
Additional Information
|